Вернуться в каталог

COSMOS 2491 DEB

АктивенPO
NORAD 45130·DEBRIS·🇷🇺 Russia

Запущен Dec 25, 2013 с Plesetsk Cosmodrome

Loading…

Ближайшие Пролёты (ближайшие 24 часа)

TLE

УстаревшееSource: Space-Track

Эпоха: Aug 23, 2026, 18:50 UTC

1 45130U 13076AC  26235.78535182  .00002100  00000-0  97154-2 0  9998
2 45130  82.4478  57.6162 0158957 317.1261  41.7530 12.72241888303280

Отслеживайте COSMOS 2491 DEB в реальном времени с AllMySat

Download on the App Store